Location: Kielce
(50.8833°N, 20.6167°E)
Time: 21:34:51
(UTC+02:00)

SR - Pass Details

Date: 25 April 2021
Orbit: 573 x 882 km, 66.7° (Epoch: 09 May)

Event Time Altitude Azimuth Distance (km) Brightness Sun altitude
Rises 16:26:48 0° 316° (NW) 3,464 ? 30.4°
Reaches altitude 10° 16:29:45 10° 303° (WNW) 2,494 ? 30.0°
Maximum altitude 16:34:18 25° 252° (WSW) 1,632 ? 29.3°
Drops below altitude 10° 16:38:36 10° 199° (SSW) 2,349 ? 28.6°
Sets 16:41:19 0° 186° (S) 3,219 ? 28.2°
